< < Back
Terminal Aerodrome Forecast


Current Version              Previous Versions:   1  2  3  4  5  6  7  8  9  

Terminal Aerodrome Forecast

288
FTUS42 KILM 262047 AAA
TAFFLO
TAF AMD
KFLO 262047Z 2621/2718 04010KT P6SM VCTS BKN018 OVC025CB
     FM262200 04007KT P6SM VCSH SCT025 BKN060
      TEMPO 2622/2702 BKN025
     FM271500 35007KT P6SM SKC=



Latest METAR

906
SAUS70 KWBC 270100 RRM
MTRFLO
METAR KFLO 270053Z 03007KT 10SM OVC018 13/10 A2975 RMK AO2 RAE11 SLP070
P0000 T01280100


USA.gov is the U.S. government's official web portal to all federal, state and local government web resources and services.